K3JAR-3 Weather Reports


Display with metric or nautical units.
time (UTC)temp
F
wind
direction
speed
MPH
gust
MPH
rain 1hr
in
rain 24hr
in
rain mn
in
humidity
%
barometer
mb
20260510150026 76 141 7.0 8.0 0.00 0.00 0.00 69 1016.1
20260510145024 75 144 6.0 11.0 0.00 0.00 0.00 69 1016.1
20260510144032 74 149 4.0 7.0 0.00 0.00 0.00 71 1016.3
20260510143030 72 154 6.0 9.0 0.00 0.00 0.00 72 1016.5
20260510142015 72 140 5.0 7.0 0.00 0.00 0.00 73 1016.8
20260510141024 71 127 5.0 8.0 0.00 0.00 0.00 73 1017.0
20260510140022 71 108 5.0 7.0 0.00 0.00 0.00 73 1017.1
20260510135025 70 102 4.0 7.0 0.00 0.00 0.00 74 1017.1
20260510134028 70 97 8.0 11.0 0.00 0.00 0.00 74 1016.8
20260510133026 70 103 8.0 14.0 0.00 0.00 0.00 74 1016.5
20260510132017 70 120 5.0 8.0 0.00 0.00 0.00 75 1016.5
20260510131020 70 115 5.0 9.0 0.00 0.00 0.00 75 1016.5
20260510130017 70 99 5.0 10.0 0.00 0.00 0.00 76 1016.3
20260510125015 70 101 8.0 10.0 0.00 0.00 0.00 77 1016.3
20260510124030 69 100 6.0 9.0 0.00 0.00 0.00 78 1016.1
20260510123015 69 98 5.0 8.0 0.00 0.00 0.00 78 1016.1
20260510122019 69 102 4.0 10.0 0.00 0.00 0.00 78 1016.0
20260510121023 69 111 6.0 9.0 0.00 0.00 0.00 78 1015.8
20260510120025 69 90 6.0 10.0 0.00 0.00 0.00 78 1015.7
20260510115048 69 97 7.0 10.0 0.00 0.00 0.00 78 1015.7
20260510114032 69 90 9.0 11.0 0.00 0.00 0.00 78 1015.7
20260510113017 70 85 8.0 11.0 0.00 0.00 0.00 78 1015.7
20260510112020 70 94 8.0 12.0 0.00 0.00 0.00 78 1015.6
20260510111023 70 80 10.0 16.0 0.00 0.00 0.00 78 1015.4
20260510110031 70 87 10.0 15.0 0.00 0.00 0.00 78 1015.3
20260510105029 70 76 11.0 15.0 0.00 0.00 0.00 78 1015.6
20260510104032 71 63 13.0 21.0 0.00 0.00 0.00 79 1015.6
20260510103018 72 69 14.0 22.0 0.00 0.00 0.00 82 1015.3
20260510102021 73 84 7.0 9.0 0.00 0.00 0.00 91 1015.2
20260510101045 73 65 7.0 10.0 0.00 0.00 0.00 91 1015.1
20260510100048 72 72 7.0 9.0 0.00 0.00 0.00 92 1014.8
20260510095025 72 58 7.0 10.0 0.00 0.00 0.00 92 1015.0
20260510094017 71 40 6.0 9.0 0.00 0.00 0.00 93 1014.5
20260510093020 71 58 5.0 6.0 0.00 0.00 0.00 93 1014.3
20260510092018 71 41 4.0 5.0 0.00 0.00 0.00 93 1014.0
20260510091035 71 63 2.0 3.0 0.00 0.00 0.00 93 1013.6
20260510090031 71 60 3.0 4.0 0.00 0.00 0.00 92 1013.5
20260510085035 71 16 3.0 4.0 0.00 0.00 0.00 92 1013.5
20260510084019 71 26 4.0 5.0 0.00 0.00 0.00 92 1013.0
20260510083022 71 0.0 0.0 0.00 0.00 0.00 91 1012.6
20260510082026 71 65 1.0 2.0 0.00 0.00 0.00 90 1012.4
20260510081029 72 0.0 0.0 0.00 0.00 0.00 89 1012.2
20260510080032 72 45 2.0 3.0 0.00 0.00 0.00 89 1012.2
20260510075017 72 52 2.0 2.0 0.00 0.00 0.00 88 1012.1
20260510074021 72 123 1.0 2.0 0.00 0.00 0.00 87 1012.0
20260510073024 73 157 1.0 3.0 0.00 0.00 0.00 85 1012.3
20260510072028 73 107 1.0 2.0 0.00 0.00 0.00 84 1012.6
20260510071051 73 44 3.0 3.0 0.00 0.00 0.00 83 1012.9
20260510070016 73 34 1.0 2.0 0.00 0.00 0.00 83 1013.0
20260510065019 73 34 3.0 4.0 0.00 0.00 0.00 83 1013.2
20260510064103 73 334 3.0 6.0 0.00 0.00 0.00 83 1012.2
20260510063026 73 3 0.0 2.0 0.00 0.00 0.00 81 1011.5
20260510062029 74 153 4.0 5.0 0.00 0.00 0.00 79 1011.4
20260510061027 73 160 3.0 6.0 0.00 0.00 0.00 79 1011.4
20260510060017 73 154 3.0 5.0 0.00 0.00 0.00 79 1011.2
20260510055022 73 126 1.0 2.0 0.00 0.00 0.00 76 1011.2
20260510054018 74 130 1.0 2.0 0.00 0.00 0.00 75 1011.0
20260510053015 74 157 3.0 5.0 0.00 0.00 0.00 74 1010.9
20260510052031 74 165 3.0 5.0 0.00 0.00 0.00 75 1010.8
20260510051041 75 156 3.0 4.0 0.00 0.00 0.00 75 1010.8
20260510050024 75 169 4.0 6.0 0.00 0.00 0.00 75 1010.7
20260510045022 75 155 3.0 5.0 0.00 0.00 0.00 75 1010.8
20260510044046 75 139 2.0 3.0 0.00 0.00 0.00 74 1011.0
20260510043029 75 155 2.0 4.0 0.00 0.00 0.00 73 1011.0
20260510042033 75 131 2.0 3.0 0.00 0.00 0.00 73 1011.1
20260510041018 75 148 2.0 3.0 0.00 0.00 0.00 71 1011.2
20260510040042 76 124 3.0 5.0 0.00 0.00 0.00 71 1011.2
20260510035024 76 118 2.0 4.0 0.00 0.00 0.00 70 1011.2
20260510034033 76 113 2.0 4.0 0.00 0.00 0.00 70 1011.4
20260510033031 76 102 3.0 5.0 0.00 0.00 0.00 70 1011.3
20260510032017 76 116 2.0 4.0 0.00 0.00 0.00 70 1011.3
20260510031040 76 118 0.0 3.0 0.00 0.00 0.00 70 1011.4
20260510030023 76 133 1.0 2.0 0.00 0.00 0.00 69 1011.0
20260510025026 77 133 1.0 3.0 0.00 0.00 0.00 68 1011.0
20260510024029 78 110 1.0 2.0 0.00 0.00 0.00 68 1010.8
20260510023027 78 104 1.0 2.0 0.00 0.00 0.00 66 1010.7
20260510022018 79 111 2.0 4.0 0.00 0.00 0.00 66 1010.6
20260510021041 79 98 2.0 4.0 0.00 0.00 0.00 66 1010.5
20260510020038 80 103 3.0 4.0 0.00 0.00 0.00 66 1010.3
20260510015016 80 117 2.0 4.0 0.00 0.00 0.00 66 1010.3
20260510014112 81 118 2.0 4.0 0.00 0.00 0.00 65 1010.2
20260510013037 82 126 2.0 4.0 0.00 0.00 0.00 63 1010.1
20260510012019 83 102 5.0 9.0 0.00 0.00 0.00 62 1009.9
20260510011023 84 87 3.0 6.0 0.00 0.00 0.00 59 1009.8
20260510010027 86 118 4.0 6.0 0.00 0.00 0.00 53 1009.7
20260510005030 86 115 2.0 3.0 0.00 0.00 0.00 48 1009.6
20260510004032 87 104 2.0 3.0 0.00 0.00 0.00 47 1009.5
20260510003018 88 180 0.0 1.0 0.00 0.00 0.00 45 1009.6
20260510002021 88 97 0.0 2.0 0.00 0.00 0.00 46 1009.6
20260510001024 88 163 0.0 1.0 0.00 0.00 0.00 49 1009.6
20260510000027 88 92 2.0 3.0 0.00 0.00 0.00 46 1009.5
20260509235031 88 126 2.0 3.0 0.00 0.00 0.00 46 1009.7
20260509234016 89 99 2.0 4.0 0.00 0.00 0.00 45 1009.6
20260509233019 89 171 2.0 3.0 0.00 0.00 0.00 46 1009.7
20260509232023 88 148 2.0 3.0 0.00 0.00 0.00 48 1009.7
20260509231026 89 101 2.0 5.0 0.00 0.00 0.00 47 1009.6
20260509230029 89 121 2.0 4.0 0.00 0.00 0.00 48 1009.6
20260509225046 89 135 3.0 4.0 0.00 0.00 0.00 47 1009.6
20260509224045 89 78 4.0 7.0 0.00 0.00 0.00 45 1009.7
20260509223040 89 92 4.0 6.0 0.00 0.00 0.00 46 1009.7
20260509222019 90 58 4.0 7.0 0.00 0.00 0.00 47 1009.6
20260509221057 90 26 3.0 7.0 0.00 0.00 0.00 48 1009.6
20260509220050 90 81 4.0 6.0 0.00 0.00 0.00 48 1009.7
20260509215029 90 86 5.0 7.0 0.00 0.00 0.00 47 1009.7
20260509214032 90 56 5.0 7.0 0.00 0.00 0.00 47 1010.0
20260509213017 91 96 7.0 9.0 0.00 0.00 0.00 44 1010.0
20260509212021 90 140 2.0 5.0 0.00 0.00 0.00 46 1010.1
20260509211024 90 145 3.0 5.0 0.00 0.00 0.00 47 1010.1
20260509210021 91 66 3.0 8.0 0.00 0.00 0.00 42 1010.3
20260509205025 91 96 2.0 4.0 0.00 0.00 0.00 43 1010.5
20260509204028 91 339 4.0 5.0 0.00 0.02 0.00 42 1010.7
20260509203036 91 79 3.0 6.0 0.00 0.04 0.00 42 1010.9
20260509202017 90 268 2.0 5.0 0.00 0.04 0.00 44 1011.0
20260509201020 89 134 3.0 4.0 0.00 0.04 0.00 45 1011.0
20260509200023 91 30 3.0 6.0 0.00 0.04 0.00 42 1011.2
20260509195026 90 308 3.0 8.0 0.00 0.04 0.00 43 1011.2
20260509194050 90 339 4.0 6.0 0.00 0.04 0.00 43 1011.2
20260509193016 90 292 4.0 8.0 0.00 0.04 0.00 42 1011.3
20260509192018 89 357 2.0 5.0 0.00 0.04 0.00 46 1011.4
20260509191021 89 321 3.0 6.0 0.00 0.04 0.00 46 1011.5
20260509190025 89 55 3.0 9.0 0.00 0.04 0.00 47 1011.5
20260509185043 89 244 3.0 5.0 0.00 0.04 0.00 47 1011.7
20260509184100 89 257 4.0 7.0 0.00 0.04 0.00 46 1011.7
20260509183017 88 280 4.0 6.0 0.00 0.04 0.00 46 1011.7
20260509182032 88 258 4.0 10.0 0.00 0.04 0.00 48 1011.8
20260509181017 87 252 4.0 5.0 0.00 0.04 0.00 47 1012.0
20260509180021 87 293 5.0 9.0 0.00 0.04 0.00 47 1012.1
20260509175044 87 271 4.0 7.0 0.00 0.04 0.00 50 1012.2
20260509174027 87 322 6.0 9.0 0.00 0.04 0.00 49 1012.2
20260509173036 86 327 4.0 7.0 0.00 0.04 0.00 51 1012.3
20260509172016 86 337 5.0 6.0 0.00 0.04 0.00 52 1012.4
20260509171019 86 298 4.0 8.0 0.00 0.04 0.00 54 1012.5
20260509165026 84 287 7.0 14.0 0.00 0.04 0.00 54 1012.7
20260509164029 84 308 8.0 12.0 0.00 0.04 0.00 54 1012.6
20260509163033 83 270 4.0 8.0 0.00 0.04 0.00 56 1012.6
20260509162018 83 290 5.0 8.0 0.00 0.04 0.00 56 1012.6
20260509161020 83 275 5.0 9.0 0.00 0.04 0.00 55 1012.7
20260509160019 82 285 4.0 7.0 0.00 0.04 0.00 55 1012.6
20260509155022 82 299 5.0 8.0 0.00 0.04 0.00 56 1012.5
20260509154026 81 300 5.0 11.0 0.00 0.04 0.00 57 1012.6
20260509153054 81 273 9.0 12.0 0.00 0.04 0.00 56 1012.5
20260509152026 81 296 7.0 10.0 0.00 0.04 0.00 59 1012.5
20260509151024 80 265 5.0 8.0 0.00 0.04 0.00 64 1012.5